HK6REC-23 Weather Reports


Display with metric or nautical units.
time (UTC)temp
F
wind
direction
speed
MPH
gust
MPH
rain 1hr
in
rain 24hr
in
rain mn
in
humidity
%
barometer
mb
20260503054414 55 350 1.0 1.0 0.00 0.00 0.00 96 1016.0
20260503053413 55 350 1.0 1.0 0.00 0.00 0.00 96 1016.0
20260503052413 57 7 1.0 1.0 0.00 0.00 0.00 96 1017.0
20260503051412 57 7 1.0 1.0 0.00 0.00 0.00 96 1017.0
20260503050411 57 7 1.0 1.0 0.00 0.00 0.00 96 1017.0
20260503045410 56 7 1.0 1.0 0.00 0.00 0.00 96 1017.0
20260503044409 59 7 1.0 1.0 0.00 0.00 0.00 96 1017.0
20260503043408 55 314 1.0 1.0 0.00 0.00 0.00 96 1017.0
20260503042407 58 314 1.0 1.0 0.00 0.00 0.00 96 1017.0
20260503041406 61 314 1.0 1.0 0.00 0.00 0.00 96 1017.0
20260503040405 61 314 1.0 1.0 0.00 0.00 0.00 96 1017.0
20260503035404 55 314 1.0 1.0 0.00 0.00 0.00 96 1017.0
20260503034403 58 314 1.0 1.0 0.00 0.00 0.00 96 1017.0
20260503033402 61 314 1.0 1.0 0.00 0.00 0.00 96 1017.0
20260503032401 55 329 1.0 1.0 0.00 0.00 0.00 96 1017.0
20260503031400 55 329 1.0 1.0 0.00 0.00 0.00 96 1017.0
20260503030359 57 329 1.0 1.0 0.00 0.00 0.00 96 1017.0
20260503025358 60 329 1.0 1.0 0.00 0.00 0.00 96 1017.0
20260503024357 57 329 1.0 1.0 0.00 0.00 0.00 96 1017.0
20260503023357 60 329 1.0 1.0 0.00 0.00 0.00 96 1017.0
20260503022356 55 1 1.0 2.0 0.00 0.00 0.00 96 1016.0
20260503021355 55 1 1.0 2.0 0.00 0.00 0.00 96 1016.0
20260503020354 55 1 1.0 2.0 0.00 0.00 0.00 96 1016.0
20260503015353 57 1 1.0 2.0 0.00 0.00 0.00 96 1016.0
20260503014352 57 1 1.0 2.0 0.00 0.00 0.00 96 1016.0
20260503013351 57 1 1.0 2.0 0.00 0.00 0.00 96 1016.0
20260503012350 56 10 1.0 3.0 0.00 0.00 0.00 95 1015.0
20260503011349 59 10 1.0 3.0 0.00 0.00 0.00 95 1015.0
20260503010348 62 10 2.0 3.0 0.00 0.00 0.00 95 1015.0
20260503005347 54 10 2.0 3.0 0.00 0.00 0.00 96 1015.0
20260503004346 54 10 2.0 3.0 0.00 0.00 0.00 96 1015.0
20260503003346 56 298 1.0 3.0 0.00 0.00 0.00 96 1015.0
20260503002345 59 298 1.0 3.0 0.00 0.00 0.00 96 1014.0
20260503001344 62 298 1.0 3.0 0.00 0.00 0.00 96 1014.0
20260503000343 65 298 2.0 3.0 0.00 0.00 0.00 96 1014.0
20260502235342 56 298 2.0 3.0 0.00 0.00 0.00 95 1014.0
20260502234340 56 326 1.0 2.0 0.00 0.00 0.00 95 1014.0
20260502233339 56 326 1.0 2.0 0.00 0.00 0.00 95 1014.0
20260502232339 58 342 1.0 2.0 0.00 0.00 0.00 95 1014.0
20260502231337 58 342 1.0 2.0 0.00 0.00 0.00 95 1014.0
20260502230337 57 342 1.0 1.0 0.00 0.00 0.00 95 1014.0
20260502225336 60 342 1.0 2.0 0.00 0.00 0.00 95 1013.0
20260502224335 57 342 1.0 1.0 0.00 0.00 0.00 95 1013.0
20260502223334 60 342 1.0 2.0 0.00 0.00 0.00 95 1013.0
20260502222333 59 351 0.0 2.0 0.00 0.00 0.00 92 1013.0
20260502221332 62 351 0.0 2.0 0.00 0.00 0.00 92 1013.0
20260502220331 65 351 0.0 2.0 0.00 0.00 0.00 92 1013.0
20260502215330 57 351 0.0 2.0 0.00 0.00 0.00 93 1013.0
20260502214329 57 351 0.0 2.0 0.00 0.00 0.00 93 1013.0
20260502213328 57 351 0.0 2.0 0.00 0.00 0.00 93 1013.0
20260502212327 59 341 0.0 2.0 0.00 0.00 0.00 93 1012.0
20260502211326 59 341 0.0 2.0 0.00 0.00 0.00 93 1012.0
20260502210325 59 341 0.0 2.0 0.00 0.00 0.00 93 1012.0
20260502205324 58 341 0.0 2.0 0.00 0.00 0.00 94 1012.0
20260502204323 61 341 0.0 2.0 0.00 0.00 0.00 94 1012.0
20260502203322 64 341 0.0 2.0 0.00 0.00 0.00 94 1012.0
20260502202321 57 327 1.0 2.0 0.00 0.00 0.00 88 1012.0
20260502201320 57 327 1.0 2.0 0.00 0.00 0.00 88 1012.0
20260502200319 57 327 1.0 2.0 0.00 0.00 0.00 88 1012.0
20260502195318 59 327 1.0 2.0 0.00 0.00 0.00 88 1012.0
20260502194317 58 320 1.0 1.0 0.00 0.00 0.00 88 1013.0
20260502193316 61 320 1.0 1.0 0.00 0.00 0.00 88 1013.0
20260502192315 64 320 1.0 2.0 0.00 0.00 0.00 88 1014.0
20260502191314 61 320 1.0 1.0 0.00 0.00 0.00 88 1013.0
20260502190313 64 320 1.0 2.0 0.00 0.00 0.00 88 1013.0
20260502185312 59 320 1.0 2.0 0.00 0.00 0.00 90 1013.0
20260502184311 59 320 1.0 2.0 0.00 0.00 0.00 90 1013.0
20260502183310 59 320 1.0 2.0 0.00 0.00 0.00 90 1013.0
20260502182310 59 315 1.0 3.0 0.00 0.00 0.00 89 1014.0
20260502181309 62 315 1.0 3.0 0.00 0.00 0.00 89 1013.0
20260502180308 65 315 1.0 3.0 0.00 0.00 0.00 89 1013.0
20260502170302 66 295 0.0 4.0 0.00 0.00 0.00 85 1015.0
20260502164259 60 295 0.0 4.0 0.00 0.00 0.00 87 1014.0
20260502163259 60 295 0.0 4.0 0.00 0.00 0.00 87 1014.0
20260502162257 63 216 1.0 3.0 0.00 0.00 0.00 83 1015.0
20260502161257 66 216 1.0 3.0 0.00 0.00 0.00 83 1015.0
20260502160256 63 216 1.0 3.0 0.00 0.00 0.00 84 1015.0
20260502152252 61 159 1.0 1.0 0.00 0.00 0.00 86 1015.0
20260502151251 61 159 1.0 1.0 0.00 0.00 0.00 86 1014.0
20260502150250 63 159 1.0 1.0 0.00 0.00 0.00 86 1014.0
20260502130238 60 203 0.0 1.0 0.00 0.00 0.00 93 1015.0
20260502123236 62 203 0.0 1.0 0.00 0.00 0.00 93 1015.0
20260502122235 56 59 0.0 1.0 0.00 0.00 0.00 91 1015.0
20260502121234 56 59 0.0 1.0 0.00 0.00 0.00 91 1015.0
20260502120233 56 59 0.0 1.0 0.00 0.00 0.00 91 1015.0
20260502115232 58 88 0.0 1.0 0.00 0.00 0.00 91 1015.0
20260502114231 58 88 0.0 1.0 0.00 0.00 0.00 91 1015.0
20260502113230 58 88 0.0 1.0 0.00 0.00 0.00 91 1015.0
20260502112229 54 22 0.0 1.0 0.00 0.00 0.00 91 1014.0
20260502111228 57 22 0.0 1.0 0.00 0.00 0.00 91 1014.0
20260502110227 60 22 0.0 1.0 0.00 0.00 0.00 91 1014.0
20260502105226 55 22 0.0 1.0 0.00 0.00 0.00 94 1014.0
20260502104225 58 22 0.0 1.0 0.00 0.00 0.00 94 1014.0
20260502103224 61 22 0.0 1.0 0.00 0.00 0.00 94 1014.0
20260502102223 54 341 0.0 1.0 0.00 0.00 0.00 94 1014.0
20260502101222 54 341 0.0 1.0 0.00 0.00 0.00 94 1014.0
20260502100221 54 341 0.0 1.0 0.00 0.00 0.00 94 1014.0
20260502091216 57 360 0.0 0.0 0.00 0.00 0.00 91 1014.0
20260502090215 60 360 0.0 0.0 0.00 0.00 0.00 91 1014.0
20260502071205 55 317 1.0 1.0 0.00 0.00 0.00 92 1013.0
20260502070204 57 317 1.0 1.0 0.00 0.00 0.00 92 1013.0
20260502065203 60 317 1.0 1.0 0.00 0.00 0.00 92 1013.0